Location: Delettes
(50.6178°N, 2.2123°E)
Time: 10:54:40
(UTC+00:00)

Spot 2 Rocket - Pass Details

Date: 27 February 2020
Orbit: 757 x 772 km, 98.6° (Epoch: 04 April)

Event Time Altitude Azimuth Distance (km) Brightness Sun altitude
Exits shadow 19:51:21 33° 41° (NE) 1,286 4.4 -23.3°
Drops below altitude 10° 19:55:02 10° 359° (N) 2,324 6.2 -23.9°
Sets 19:57:30 0° 351° (N) 3,257 7.1 -24.2°
